Vertical_Velocity
8 12 -18 -2 1 -0 -1 -0 2 1 4 12 -3 -3 5 3 12 7 -2 -4 -8 -8 -2 -4 -6 -9 -4 2 -1 5 1 2 -1 1 -1 2 2 2 4 2 -1 -1 -0 -0
-0 -14 1 4 -4 4 9 10 -5 -8 -5 18 -1 -13 1 30 10 -2 -3 0 2 11 1 -4 -2 -7 -3 -2 3 2 4 3 3 -0 0 0 3 3 -4 2 0 -0 2 -3
3 -0 7 9 2 4 -5 1 -1 6 -3 -5 3 -35 -10 -1 5 19 20 5 -2 -1 3 -5 -9 -5 1 -2 2 3 6 -1 -3 -1 -0 -1 0 -1 4 -2 1 0 -1 -2
4 -4 -4 -6 -5 18 6 1 3 -4 8 -1 -1 -37 -1 -12 -18 5 -4 7 10 -0 15 -0 -8 -8 -2 -2 -4 3 7 3 4 4 2 3 0 5 4 4 -2 -1 -2 -4
-59 8 -1 2 -12 21 -32 2 8 2 -1 5 8 8 -28 -4 1 7 5 15 37 -3 1 -7 -4 1 6 -0 -1 0 3 -2 1 -0 -5 1 -1 -3 -0 3 2 -2 -4 -1
-8 -1 6 -6 -3 15 31 13 8 10 13 1 23 4 -75 2 -8 -24 -16 -11 23 -3 6 11 8 5 0 2 -2 4 8 5 -1 8 0 2 3 -0 1 -3 -1 -0 4 -4
27 -11 9 -9 -9 5 7 14 -0 4 6 -15 19 6 -66 9 2 -2 -6 -8 11 4 10 4 8 -0 4 3 1 -1 5 11 -0 4 4 1 1 1 -2 -1 -2 -3 4 -7
3 -13 -0 -10 -25 -7 -5 4 -6 -5 -3 -11 14 -9 -35 -3 -11 11 -3 -0 2 -5 15 14 4 1 -1 4 2 1 4 5 -5 2 0 4 2 0 0 -4 -1 1 -3 -6
10 -8 14 16 4 19 -16 3 5 11 14 -1 -1 5 2 26 -1 -10 -14 -1 7 14 8 0 4 9 5 -3 3 -0 5 4 -2 2 4 2 1 1 -2 1 -2 -10 -5 1
12 -13 14 -4 -4 2 -10 -7 5 1 1 1 -3 -3 -6 8 17 9 -6 -5 2 -16 5 4 -1 6 -2 3 5 4 0 7 -2 5 7 2 -0 -3 -0 -1 -6 -7 -1 4
5 -5 -3 -8 -0 2 6 21 10 0 -0 -1 -1 -6 11 -1 3 3 -5 -1 21 7 -10 -15 -21 -14 2 1 -9 0 -1 6 -0 1 2 5 5 7 3 -2 -0 -4 -2 -3
-7 -10 -4 -19 3 9 10 -3 8 3 3 1 -3 -27 10 16 9 20 -3 16 1 -6 -14 -8 3 2 2 6 1 5 1 6 -2 6 6 -1 0 5 1 -0 -1 1 -3 2
-6 4 -4 -9 4 14 2 -3 5 3 1 -6 1 -11 2 1 6 8 1 12 10 -2 12 5 -5 -3 -2 -0 -1 2 5 -5 4 1 4 2 1 2 4 3 0 -1 -1 6
6 -0 -4 -0 2 4 -0 0 4 -5 1 -0 -8 -24 -13 1 -8 2 -11 -0 6 7 4 2 -1 -6 -5 1 3 2 -0 -3 1 9 4 6 2 1 3 5 0 -3 -3 2
-11 -12 -6 -17 -17 6 -2 -4 3 4 -5 -0 -27 -9 -20 -17 -1 -3 8 6 -20 -32 1 -2 3 -1 -5 6 3 3 2 6 -1 6 2 -6 -6 3 1 2 1 -3 1 -2
1 -3 6 -12 -4 5 -2 -10 -8 8 -2 6 9 -17 1 -24 -9 -2 -6 -9 7 7 1 5 -7 -4 -4 1 9 6 4 -7 3 -3 -6 -7 2 3 3 0 2 -2 -3 2
12 2 6 -15 15 9 6 -18 -0 -6 6 9 1 -19 -4 -1 10 13 9 3 -10 5 10 -3 -5 -3 -7 2 11 8 2 4 7 -2 10 3 8 -0 -0 -3 1 0 -1 2
6 -2 10 -8 5 -1 -33 -10 13 -0 -7 20 20 20 -1 -6 -7 14 4 2 -1 -3 -8 16 5 11 4 11 6 -6 2 3 0 12 1 -3 6 0 0 -3 2 1 -0 -2
0 9 6 0 2 -13 -44 9 -4 7 -29 -7 0 -5 -1 -1 -6 0 4 0 -4 -12 19 8 9 7 10 10 -11 11 17 1 15 -15 1 -1 -1 -0 0 -0 4 1 1 2
4 -1 10 11 1 -2 -3 -2 9 6 -15 0 2 -9 -16 6 -2 -1 2 6 -12 -3 11 -15 8 11 12 12 2 7 2 35 -13 -11 -3 -5 -2 -0 1 -0 5 -2 -4 0
9 5 -2 -0 1 -19 4 -9 -4 14 -12 4 2 -1 4 3 -1 -6 2 -3 -11 2 -3 -12 -12 -1 3 9 22 28 6 -9 2 12 4 2 0 0 -1 1 1 2 0 2
7 1 0 3 5 1 0 5 2 -2 -7 -25 6 -5 -6 2 5 -2 -1 -3 -4 0 -4 -1 -5 8 -1 16 -10 -4 -4 3 8 3 5 -2 0 2 0 1 0 -1 1 1
2 -0 -3 -2 -1 -7 -4 -28 -10 28 -9 -1 -3 -0 -2 -7 -7 -3 0 -1 -2 4 10 -1 0 -6 -10 11 9 -9 -3 2 8 3 7 -3 2 1 1 0 0 -1 3 -4
1 -3 -0 -5 -0 6 8 2 -21 13 -7 2 -1 -2 -2 -5 -1 3 1 -1 -2 2 6 -8 -2 -1 -5 6 -12 -8 3 11 5 5 -2 2 1 2 -2 0 1 1 -0 -0
-2 -5 -0 1 8 2 -11 18 3 5 -5 2 3 1 -5 -5 -0 2 -5 7 -3 6 4 -3 -2 -3 -5 -4 -1 5 4 5 2 1 1 -1 -1 0 -2 1 0 1 2 -2
-3 -2 2 -14 5 -2 -9 39 3 -2 1 -4 -1 2 -4 -0 2 -1 3 4 -5 5 3 3 1 -1 -5 -1 0 4 6 3 -2 -2 1 2 1 -4 0 0 -2 2 2 -1
Height
3072 3072 3068 3070 3073 3074 3075 3073 3070 3071 3072 3072 3069 3066 3065 3070 3072 3072 3074 3073 3072 3072 3072 3073 3074 3077 3080 3084 3087 3088 3089 3090 3092 3092 3093 3094 3096 3097 3097 3097 3096 3096 3096 3095
3066 3056 3060 3065 3067 3068 3069 3069 3065 3064 3064 3065 3062 3056 3061 3065 3065 3065 3065 3067 3066 3066 3064 3066 3067 3069 3072 3076 3080 3082 3083 3083 3084 3085 3085 3089 3091 3092 3092 3092 3092 3092 3090 3089
3053 3050 3058 3060 3059 3061 3057 3060 3061 3060 3060 3057 3057 3043 3052 3056 3059 3060 3058 3060 3061 3058 3056 3056 3059 3062 3065 3067 3072 3075 3076 3076 3076 3078 3081 3084 3084 3086 3088 3088 3087 3087 3086 3083
3042 3046 3047 3049 3046 3057 3045 3056 3055 3055 3057 3051 3055 3042 3043 3048 3047 3051 3052 3052 3050 3049 3046 3049 3053 3056 3059 3062 3062 3066 3069 3068 3069 3072 3073 3075 3078 3080 3082 3083 3083 3083 3081 3079
3019 3037 3039 3037 3037 3048 3032 3050 3050 3050 3049 3048 3040 3049 3016 3037 3037 3039 3042 3044 3043 3041 3040 3042 3044 3049 3053 3055 3054 3056 3060 3062 3064 3065 3066 3068 3072 3075 3077 3078 3078 3077 3076 3074
3018 3032 3033 3034 3035 3038 3040 3040 3042 3043 3042 3043 3020 3041 3022 3027 3026 3030 3032 3036 3034 3032 3032 3032 3037 3044 3049 3048 3047 3049 3050 3053 3056 3060 3059 3063 3066 3069 3072 3072 3072 3071 3072 3069
3019 3013 3019 3029 3031 3032 3033 3035 3036 3038 3038 3025 3028 3034 3008 3015 3021 3022 3022 3022 3022 3023 3022 3023 3028 3037 3041 3041 3040 3043 3046 3048 3048 3054 3055 3058 3060 3064 3066 3066 3067 3067 3065 3064
3017 3009 3011 3013 3014 3017 3021 3029 3025 3028 3029 3021 3020 3015 3007 3013 3013 3015 3015 3015 3013 3015 3019 3023 3028 3031 3035 3035 3035 3038 3039 3043 3044 3047 3051 3053 3056 3059 3061 3061 3061 3061 3061 3060
3014 3006 3010 3011 3010 3013 3014 3019 3022 3017 3016 3020 3008 3006 3007 3007 3009 3010 3015 3014 3016 3017 3019 3021 3025 3026 3029 3031 3030 3033 3035 3036 3038 3042 3044 3047 3051 3054 3056 3055 3056 3056 3057 3054
3006 3005 3007 3005 3006 3008 3009 3013 3014 3013 3012 3013 3004 3001 3004 3007 3005 3005 3007 3012 3011 3015 3016 3016 3019 3022 3024 3023 3024 3026 3029 3030 3032 3037 3040 3042 3045 3047 3049 3050 3051 3051 3050 3048
3001 3003 3004 3003 3004 3005 3007 3007 3009 3010 3007 3008 3005 2998 2999 3003 3004 3003 3007 3010 3011 3007 3009 3011 3014 3015 3016 3017 3018 3021 3022 3022 3025 3029 3033 3037 3039 3041 3043 3044 3044 3045 3044 3042
2997 2999 2999 3001 3001 3000 3000 3001 3004 3004 3001 3002 3002 2997 2999 2998 3003 3001 3002 3005 3006 3004 3002 3004 3005 3007 3009 3010 3010 3011 3015 3017 3021 3023 3026 3029 3034 3036 3037 3037 3039 3038 3038 3037
2991 2992 2997 2994 2997 2994 2992 2997 2998 2996 2998 2998 2999 2991 2989 2992 2995 2994 2999 2998 2997 2999 2999 3000 3001 3003 3005 3005 3003 3006 3007 3009 3013 3016 3020 3022 3025 3029 3031 3031 3031 3032 3032 3029
2985 2988 2993 2992 2989 2992 2991 2993 2995 2995 2995 2992 2990 2989 2985 2989 2993 2992 2992 2994 2995 2995 2994 2994 2994 2995 2996 2997 2996 2998 2999 3001 3005 3008 3011 3015 3017 3023 3025 3024 3024 3025 3026 3023
2980 2983 2985 2985 2985 2986 2987 2987 2988 2987 2985 2986 2979 2986 2984 2982 2984 2985 2984 2986 2985 2985 2985 2982 2984 2984 2986 2987 2987 2989 2991 2994 2997 2999 3003 3006 3012 3015 3017 3018 3018 3019 3019 3017
2974 2975 2975 2975 2977 2980 2980 2978 2977 2978 2978 2977 2978 2976 2977 2975 2974 2974 2974 2975 2975 2976 2975 2973 2974 2976 2976 2978 2979 2981 2983 2987 2989 2990 2994 2998 3003 3005 3009 3011 3012 3012 3012 3011
2970 2970 2971 2970 2973 2974 2973 2966 2968 2968 2972 2973 2970 2969 2971 2970 2968 2968 2964 2965 2965 2964 2964 2964 2962 2964 2967 2968 2971 2974 2975 2977 2978 2979 2981 2989 2993 2999 3003 3004 3006 3006 3006 3006
2963 2965 2968 2967 2968 2969 2962 2964 2964 2965 2966 2965 2964 2963 2963 2961 2961 2959 2954 2954 2954 2955 2953 2954 2951 2955 2958 2959 2962 2965 2966 2967 2969 2970 2977 2984 2988 2994 2996 2998 2999 3000 3000 3001
2955 2960 2962 2964 2963 2961 2958 2955 2961 2962 2960 2956 2955 2955 2955 2954 2954 2952 2951 2948 2946 2946 2946 2946 2945 2945 2947 2949 2951 2953 2955 2958 2960 2967 2973 2978 2983 2987 2989 2991 2992 2993 2994 2995
2947 2951 2957 2958 2960 2958 2945 2951 2953 2955 2952 2949 2949 2947 2946 2946 2943 2941 2940 2938 2936 2935 2936 2934 2935 2931 2930 2941 2942 2943 2944 2948 2955 2963 2969 2974 2978 2980 2983 2984 2986 2988 2989 2991
2943 2944 2947 2948 2950 2946 2942 2945 2949 2951 2951 2945 2944 2941 2940 2939 2937 2934 2931 2930 2928 2925 2924 2922 2921 2920 2925 2931 2931 2932 2939 2945 2954 2960 2964 2968 2971 2974 2976 2978 2980 2982 2984 2985
2939 2940 2940 2942 2941 2940 2940 2942 2946 2942 2940 2937 2939 2936 2935 2932 2929 2926 2924 2924 2922 2918 2920 2921 2918 2918 2921 2926 2930 2932 2939 2946 2952 2957 2960 2963 2965 2968 2970 2972 2974 2976 2978 2979
2935 2935 2937 2939 2937 2936 2937 2939 2940 2938 2936 2934 2933 2932 2928 2927 2924 2922 2922 2920 2917 2916 2915 2919 2920 2922 2921 2924 2929 2934 2940 2946 2949 2952 2953 2956 2958 2961 2963 2965 2968 2970 2972 2973
2932 2932 2932 2932 2932 2931 2930 2932 2933 2934 2933 2931 2930 2928 2926 2924 2923 2921 2919 2916 2914 2915 2916 2917 2917 2919 2922 2923 2929 2934 2938 2941 2944 2946 2949 2950 2952 2955 2958 2959 2963 2965 2966 2966
2929 2929 2928 2926 2925 2923 2917 2927 2929 2928 2929 2930 2928 2926 2924 2924 2922 2920 2918 2916 2913 2911 2914 2916 2917 2919 2922 2925 2929 2932 2935 2938 2940 2943 2944 2946 2948 2950 2953 2955 2957 2960 2960 2960
2923 2924 2924 2922 2924 2923 2923 2925 2926 2927 2927 2926 2925 2924 2923 2923 2922 2920 2917 2913 2912 2911 2912 2916 2918 2921 2923 2925 2928 2930 2933 2935 2937 2938 2940 2942 2944 2946 2948 2950 2952 2954 2955 2955